Preview of NWS' New Version of Forecast
This preview is not operational and should not be used for support decisions.

Regional Weather Roundup (RWR)

Issued by National Weather Service (NWS)

                            
000
ASUS46 KSEW 221520
RWRWA 

WASHINGTON REGIONAL WEATHER ROUNDUP
NATIONAL WEATHER SERVICE SEATTLE WA
800 AM PDT SUN SEP 22 2019

NOTE:"FAIR" INDICATES FEW OR NO CLOUDS BELOW 12,000 FEET WITH NO 
SIGNIFICANT WEATHER AND/OR OBSTRUCTIONS TO VISIBILITY.

WAZ507-509-555>559-221600-
SEATTLE, TACOMA, EVERETT, AND VICINITY
  
CITY           SKY/WX    TMP DP  RH WIND       PRES   REMARKS
EVERETT        LGT RAIN  59  56  89 SE12      29.87S                  
BOEING FIELD   LGT RAIN  61  56  83 CALM      29.86S                  
RENTON         LGT RAIN  60  57  89 CALM      29.86S                  
SEATAC AIRPORT CLOUDY    60  56  86 S5        29.87S                  
JBLM-MCCHORD   LGT RAIN  57  57 100 CALM      29.87S                  
PUYALLUP       DRIZZLE   59  59 100 CALM      29.87S                  
BREMERTON      LGT RAIN  58  57  97 S8        29.86S                  
JBLM-FT LEWIS  LGT RAIN  57  57 100 SE3       29.86S                  
TACOMA NARROWS LGT RAIN  57  55  93 S3        29.87S                  
$$
 
WAZ001-503-506-510-514-515-221600-
NORTH INTERIOR
  
CITY           SKY/WX    TMP DP  RH WIND       PRES   REMARKS
BELLINGHAM     LGT RAIN  62  56  80 SE8       29.83S                  
FRIDAY HARBOR  CLOUDY    58  56  93 SE5       29.83S                  
EASTSOUND      LGT RAIN  61  59  94 S8G14     29.80F                  
PORT ANGELES   FOG       55  55 100 CALM      29.82S VSB<1/4          
EDIZ HOOK      CLOUDY    55  54  99 N3        29.81S FOG              
PORT TOWNSEND  MOCLDY    59  59 100 SE7       29.80S                  
NAS WHIDBEY    LGT RAIN  62  57  83 E12       29.85F                  
ARLINGTON      LGT RAIN  59  57  93 SE3       29.86S                  
BURLINGTON     CLOUDY    59  59 100 E5        29.84S                  
$$
 
WAZ020-022-039-040-504-511-512-221600-
SOUTHWEST INTERIOR
  
CITY           SKY/WX    TMP DP  RH WIND       PRES   REMARKS
SHELTON        LGT RAIN  59  56  89 SE3       29.83F FOG              
OLYMPIA        LGT RAIN  58  56  93 SW5       29.86S                  
CHEHALIS       LGT RAIN  59  59 100 S8        29.87S                  
KELSO          LGT RAIN  58  57  97 SE10      29.89S                  
VANCOUVER      CLOUDY    59  53  80 E6        29.90S                  
SCAPPOOSE, OR  RAIN      57  56  96 CALM      29.90S FOG              
PORTLAND, OR   CLOUDY    59  54  83 SE5       29.91S                  
$$
 
WAZ021-516-517-221600-
WASHINGTON COAST
  
CITY           SKY/WX    TMP DP  RH WIND       PRES   REMARKS
FORKS          LGT RAIN  59  58  96 SE6       29.78F                  
HOQUIAM        LGT RAIN  59  59 100 E8        29.83F FOG              
ASTORIA, OR    LGT RAIN  59  57  93 SE3       29.84F FOG              
$$
 
WAZ019-023-024-040-567>569-221600-
CASCADE MOUNTAINS AND COLUMBIA GORGE
  
CITY           SKY/WX    TMP DP  RH WIND       PRES   REMARKS
STAMPEDE PASS  FOG       48  46  93 VRB3      29.92S VSB 1/4          
TROUTDALE, OR  CLOUDY    58  52  80 E3        29.91R                  
HOOD RIVER, OR CLOUDY    54  50  87 CALM      29.90R                  
THE DALLES, OR PTSUNNY   57  50  77 SE6       29.88S                  
$$

WAZ026-027-041>044-520-521-221600-
EAST SLOPES
  
CITY           SKY/WX    TMP DP  RH WIND       PRES   REMARKS
OMAK           PTSUNNY   54  48  80 CALM      29.88S                  
WENATCHEE      PTSUNNY   54  47  77 W8        29.87R                  
ELLENSBURG     CLOUDY    52  47  83 E3        29.87S                  
YAKIMA         CLOUDY    52  47  83 W6        29.87R                  
SUNNYSIDE ARPT PTSUNNY   51  50  96 CALM      29.86S                  
YAKIMA TC      FAIR      54  46  73 NW3       29.86S                  
$$

WAZ028-034-035-221600-
COLUMBIA BASIN
  
CITY           SKY/WX    TMP DP  RH WIND       PRES   REMARKS
EPHRATA        PTSUNNY   55  46  71 N8        29.87S                  
MOSES LAKE     PTSUNNY   54  44  69 E3        29.87S                  
PASCO          PTSUNNY   56  51  84 CALM      29.86S                  
RICHLAND ARPT  PTSUNNY   63  51  65 S7        29.86                   
HERMISTON, OR  PTSUNNY   55  49  80 CALM      29.86S                  
$$

WAZ036>038-221600-
NORTHEAST WASHINGTON
  
CITY           SKY/WX    TMP DP  RH WIND       PRES   REMARKS
SPOKANE GEIGER MOSUNNY   50  45  83 E3        29.93S                  
SPOKANE FELTS  SUNNY     51  47  86 CALM      29.94S                  
FAIRCHILD AFB  SUNNY     50  50 100 E6        29.92F                  
COEURDALENE,ID SUNNY     46  43  89 NE6       29.96S                  
DEER PARK      SUNNY     49  46  90 CALM      29.94F                  
$$

WAZ029>033-221600-
SOUTHEAST WASHINGTON
  
CITY           SKY/WX    TMP DP  RH WIND       PRES   REMARKS
PULLMAN        SUNNY     55  46  71 E18       29.95F                  
LEWISTON, ID   SUNNY     57  47  69 E6        29.93S                  
WALLA WALLA    MOSUNNY   60  48  64 E5        29.86F                  
PENDLETON, OR  PTSUNNY   56  47  71 CALM      29.88S                  
$$